Location: Unspecified
(0.0000°N, 0.0000°E)
Time: 13:25:30
(UTC+00:00)

ADRAS-J - Pass Details

Date: 25 May 2025
Orbit: 544 x 592 km, 98.2° (Epoch: 16 June)

Event Time Altitude Azimuth Distance (km) Brightness Sun altitude
Rises 05:03:54 0° 15° (NNE) 2,808 ? -12.4°
Reaches altitude 10° 05:06:03 10° 17° (NNE) 1,913 ? -11.9°
Maximum altitude 05:10:12 74° 102° (ESE) 619 ? -10.9°
Drops below altitude 10° 05:14:22 10° 187° (S) 1,922 ? -9.9°
Sets 05:16:32 0° 189° (S) 2,822 ? -9.4°
